When you browse on this site, cookies collect data to enhance your experience and personalize the content and advertising you see.
Visit our Privacy Policy to learn more. By continuing to use the site, you agree to this use of cookies and data.
  • In Lithuania
  • List of Countries
  • For 7 days
  • Water Temperature
  • Satellite Maps
  • Weather Map
  • Weather Widgets
  • user-avatar
    Login

    Hourly Weather Trujillo

    Today, 18 November, Sunday

    Time Temperature Precipitation Wind Pressure Humidity
    00:00 +20°C° 1 mm 1 mps 647 mmHg 86%
    01:00 +20°C° 1 mm 1 mps 646 mmHg 86%
    02:00 +20°C° 1 mm 1 mps 646 mmHg 86%
    03:00 +20°C° 1 mm 1 mps 646 mmHg 86%
    04:00 +20°C° 1 mm 1 mps 646 mmHg 87%
    05:00 +20°C° 1 mm 1 mps 647 mmHg 86%
    06:00 +20°C° 1 mm 1 mps 647 mmHg 85%
    07:00 +21°C° 1 mm 1 mps 647 mmHg 85%
    08:00 +22°C° 0.6 mm 1 mps 648 mmHg 80%
    09:00 +23°C° 0.6 mm 1 mps 649 mmHg 76%
    10:00 +24°C° 0.6 mm 1 mps 649 mmHg 71%
    11:00 +24°C° 0.6 mm 1 mps 649 mmHg 70%
    12:00 +25°C° 0.6 mm 2 mps 648 mmHg 69%
    13:00 +25°C° 0.6 mm 2 mps 648 mmHg 68%
    14:00 +25°C° 0.7 mm 1 mps 647 mmHg 71%
    15:00 +24°C° 0.7 mm 1 mps 647 mmHg 74%
    16:00 +23°C° 0.7 mm 1 mps 646 mmHg 78%
    17:00 +22°C° 0.4 mm 1 mps 646 mmHg 81%
    18:00 +21°C° 0.4 mm 1 mps 646 mmHg 84%
    19:00 +20°C° 0.4 mm 1 mps 646 mmHg 87%
    20:00 +20°C° 0.2 mm 1 mps 647 mmHg 86%
    21:00 +20°C° 0.2 mm 1 mps 647 mmHg 85%
    22:00 +20°C° 0.2 mm 1 mps 647 mmHg 85%
    23:00 +20°C° 0.5 mm 1 mps 647 mmHg 84%

    Tomorrow, 19 November, Monday

    Time Temperature Precipitation Wind Pressure Humidity
    00:00 +19°C° 0.5 mm 1 mps 647 mmHg 83%
    01:00 +19°C° 0.5 mm 1 mps 646 mmHg 82%
    02:00 +19°C° 0.4 mm 1 mps 646 mmHg 82%
    03:00 +19°C° 0.4 mm 1 mps 646 mmHg 82%
    04:00 +19°C° 0.4 mm 1 mps 646 mmHg 81%
    05:00 +20°C° 0.3 mm 1 mps 647 mmHg 80%
    06:00 +20°C° 0.3 mm 1 mps 647 mmHg 79%
    07:00 +21°C° 0.3 mm 1 mps 648 mmHg 78%
    08:00 +22°C° 0.2 mm 1 mps 649 mmHg 73%
    09:00 +24°C° 0.2 mm 1 mps 649 mmHg 68%
    10:00 +25°C° 0.2 mm 1 mps 650 mmHg 63%
    11:00 +25°C° 0.3 mm 2 mps 649 mmHg 63%
    12:00 +26°C° 0.3 mm 2 mps 648 mmHg 64%
    13:00 +26°C° 0.3 mm 2 mps 648 mmHg 64%
    14:00 +25°C° 0.4 mm 1 mps 647 mmHg 68%
    15:00 +24°C° 0.4 mm 1 mps 646 mmHg 72%
    16:00 +24°C° 0.4 mm 1 mps 646 mmHg 76%
    17:00 +23°C° 0.4 mm 1 mps 646 mmHg 79%
    18:00 +21°C° 0.4 mm 1 mps 646 mmHg 83%
    19:00 +18°C° 0.4 mm 0 mps 646 mmHg 87%
    20:00 +18°C° 0.2 mm 0 mps 647 mmHg 87%
    21:00 +20°C° 0.2 mm 1 mps 647 mmHg 87%
    22:00 +20°C° 0.2 mm 1 mps 647 mmHg 86%
    23:00 +19°C° 0.2 mm 1 mps 647 mmHg 86%

    Day after tomorrow, 20 November, Tuesday

    Time Temperature Precipitation Wind Pressure Humidity
    00:00 +19°C° 0.2 mm 1 mps 647 mmHg 85%
    01:00 +19°C° 0.2 mm 1 mps 646 mmHg 84%
    02:00 +19°C° 0.1 mm 1 mps 646 mmHg 83%
    03:00 +19°C° 0.1 mm 1 mps 646 mmHg 83%
    04:00 +19°C° 0.1 mm 1 mps 646 mmHg 82%
    05:00 +19°C° 0 mm 1 mps 647 mmHg 80%
    06:00 +20°C° 0 mm 1 mps 647 mmHg 78%
    07:00 +21°C° 0 mm 1 mps 648 mmHg 76%
    08:00 +22°C° 0.1 mm 1 mps 649 mmHg 72%
    09:00 +24°C° 0.1 mm 2 mps 649 mmHg 68%
    10:00 +26°C° 0.1 mm 2 mps 650 mmHg 63%
    11:00 +26°C° 0.2 mm 2 mps 649 mmHg 64%
    12:00 +26°C° 0.2 mm 2 mps 648 mmHg 64%
    13:00 +26°C° 0.2 mm 2 mps 648 mmHg 64%
    14:00 +25°C° 0.4 mm 2 mps 647 mmHg 67%
    15:00 +25°C° 0.4 mm 1 mps 647 mmHg 71%
    16:00 +24°C° 0.4 mm 1 mps 646 mmHg 74%
    17:00 +23°C° 0.2 mm 1 mps 646 mmHg 78%
    18:00 +21°C° 0.2 mm 1 mps 646 mmHg 83%
    19:00 +18°C° 0.2 mm 0 mps 646 mmHg 87%
    20:00 +20°C° 0.1 mm 1 mps 647 mmHg 86%
    21:00 +20°C° 0.1 mm 1 mps 647 mmHg 84%
    22:00 +19°C° 0.1 mm 1 mps 647 mmHg 83%
    23:00 +19°C° 0.1 mm 1 mps 647 mmHg 82%

    21 November, Wednesday

    Time Temperature Precipitation Wind Pressure Humidity
    00:00 +19°C° 0.1 mm 1 mps 647 mmHg 80%
    01:00 +19°C° 0.1 mm 1 mps 646 mmHg 79%
    02:00 +19°C° 0 mm 1 mps 646 mmHg 79%
    03:00 +18°C° 0 mm 1 mps 646 mmHg 79%
    04:00 +18°C° 0 mm 1 mps 646 mmHg 78%
    05:00 +19°C° 0 mm 1 mps 647 mmHg 76%
    06:00 +20°C° 0 mm 1 mps 648 mmHg 74%
    07:00 +21°C° 0 mm 1 mps 649 mmHg 73%
    08:00 +23°C° 0 mm 1 mps 649 mmHg 67%
    09:00 +25°C° 0 mm 1 mps 650 mmHg 61%
    10:00 +26°C° 0 mm 2 mps 651 mmHg 55%
    11:00 +26°C° 0.1 mm 2 mps 650 mmHg 56%
    12:00 +26°C° 0.1 mm 2 mps 649 mmHg 58%
    13:00 +26°C° 0.1 mm 2 mps 648 mmHg 60%
    14:00 +25°C° 0.5 mm 1 mps 647 mmHg 66%
    15:00 +25°C° 0.5 mm 1 mps 647 mmHg 72%
    16:00 +24°C° 0.5 mm 1 mps 646 mmHg 78%
    17:00 +22°C° 0.7 mm 1 mps 646 mmHg 82%
    18:00 +21°C° 0.7 mm 1 mps 646 mmHg 87%
    19:00 +18°C° 0.7 mm 0 mps 647 mmHg 91%
    20:00 +18°C° 0.6 mm 0 mps 647 mmHg 91%
    21:00 +18°C° 0.6 mm 0 mps 647 mmHg 91%
    22:00 +20°C° 0.6 mm 1 mps 647 mmHg 90%
    23:00 +20°C° 0.2 mm 1 mps 647 mmHg 90%

    22 November, Thursday

    Time Temperature Precipitation Wind Pressure Humidity
    00:00 +19°C° 0.2 mm 1 mps 647 mmHg 90%
    01:00 +19°C° 0.2 mm 1 mps 646 mmHg 90%
    02:00 +19°C° 0.2 mm 1 mps 646 mmHg 90%
    03:00 +19°C° 0.2 mm 1 mps 646 mmHg 90%
    04:00 +19°C° 0.2 mm 1 mps 646 mmHg 90%
    05:00 +19°C° 0.1 mm 1 mps 647 mmHg 88%
    06:00 +20°C° 0.1 mm 1 mps 648 mmHg 85%
    07:00 +18°C° 0.1 mm 0 mps 648 mmHg 83%
    08:00 +22°C° 0.1 mm 1 mps 649 mmHg 78%
    09:00 +23°C° 0.1 mm 1 mps 649 mmHg 72%
    10:00 +24°C° 0.1 mm 1 mps 649 mmHg 67%
    11:00 +24°C° 0.1 mm 1 mps 649 mmHg 67%
    12:00 +25°C° 0.1 mm 1 mps 648 mmHg 67%
    13:00 +25°C° 0.1 mm 1 mps 647 mmHg 67%
    14:00 +24°C° 0.3 mm 1 mps 647 mmHg 70%
    15:00 +24°C° 0.3 mm 1 mps 646 mmHg 74%
    16:00 +23°C° 0.3 mm 1 mps 646 mmHg 77%
    17:00 +22°C° 0.5 mm 1 mps 646 mmHg 82%
    18:00 +21°C° 0.5 mm 1 mps 646 mmHg 86%
    19:00 +20°C° 0.5 mm 1 mps 646 mmHg 91%
    20:00 +20°C° 0.6 mm 1 mps 646 mmHg 90%
    21:00 +20°C° 0.6 mm 1 mps 647 mmHg 90%
    22:00 +19°C° 0.6 mm 1 mps 647 mmHg 89%
    23:00 +19°C° 0.6 mm 1 mps 647 mmHg 89%

    23 November, Friday

    Time Temperature Precipitation Wind Pressure Humidity
    00:00 +19°C° 0.6 mm 1 mps 646 mmHg 88%
    01:00 +19°C° 0.6 mm 1 mps 646 mmHg 88%
    02:00 +19°C° 0.3 mm 1 mps 646 mmHg 88%
    03:00 +19°C° 0.3 mm 1 mps 646 mmHg 88%
    04:00 +18°C° 0.3 mm 1 mps 646 mmHg 89%
    05:00 +17°C° 0.1 mm 0 mps 646 mmHg 87%
    06:00 +18°C° 0.1 mm 0 mps 647 mmHg 85%
    07:00 +18°C° 0.1 mm 0 mps 648 mmHg 83%
    08:00 +20°C° 0.2 mm 0 mps 648 mmHg 77%
    09:00 +23°C° 0.2 mm 1 mps 648 mmHg 70%
    10:00 +24°C° 0.2 mm 1 mps 649 mmHg 64%
    11:00 +25°C° 0.2 mm 1 mps 648 mmHg 63%
    12:00 +25°C° 0.2 mm 1 mps 647 mmHg 62%
    13:00 +25°C° 0.2 mm 1 mps 647 mmHg 61%
    14:00 +25°C° 0.4 mm 1 mps 646 mmHg 63%
    15:00 +25°C° 0.4 mm 1 mps 646 mmHg 64%
    16:00 +24°C° 0.4 mm 1 mps 645 mmHg 66%
    17:00 +23°C° 0.3 mm 1 mps 645 mmHg 72%
    18:00 +21°C° 0.3 mm 1 mps 645 mmHg 78%
    19:00 +19°C° 0.3 mm 1 mps 645 mmHg 84%
    20:00 +19°C° 0 mm 1 mps 645 mmHg 83%
    21:00 +19°C° 0 mm 1 mps 646 mmHg 82%
    22:00 +18°C° 0 mm 1 mps 646 mmHg 80%
    23:00 +18°C° 0 mm 1 mps 646 mmHg 79%
    Show more